Time,TemperatureF,DewpointF,PressureIn,WindDirection,WindDirectionDegrees,WindSpeedMPH,WindSpeedGustMPH,Humidity,HourlyPrecipIn,Conditions,Clouds,dailyrainin,SoftwareType,DateUTC
2013-03-14 00:02:00,36.7,9.5,30.13,SSW,202,3.0,6.0,32,0.00,,,0.00,meteohub,2013-03-14 04:02:00,
2013-03-14 00:06:00,36.3,9.3,30.13,NW,315,3.0,6.0,32,0.00,,,0.00,meteohub,2013-03-14 04:06:00,
2013-03-14 00:07:00,36.3,9.3,30.13,NNE,22,6.0,6.0,32,0.00,,,0.00,meteohub,2013-03-14 04:07:00,
2013-03-14 00:12:00,36.3,9.3,30.13,NNE,22,3.0,6.0,32,0.00,,,0.00,meteohub,2013-03-14 04:12:00,
2013-03-14 00:17:00,36.1,9.1,30.13,NNW,338,3.0,6.0,32,0.00,,,0.00,meteohub,2013-03-14 04:17:00,
2013-03-14 00:22:00,36.0,9.7,30.13,NNW,338,3.0,6.0,33,0.00,,,0.00,meteohub,2013-03-14 04:22:00,
2013-03-14 00:27:00,35.8,9.5,30.13,WSW,248,2.0,6.0,33,0.00,,,0.00,meteohub,2013-03-14 04:27:00,
2013-03-14 00:32:00,35.6,10.0,30.13,NNE,22,0.0,6.0,34,0.00,,,0.00,meteohub,2013-03-14 04:32:00,
2013-03-14 00:37:00,35.4,10.4,30.13,SSE,158,0.0,5.0,35,0.00,,,0.00,meteohub,2013-03-14 04:37:00,
2013-03-14 00:42:00,34.9,11.3,30.13,NNE,22,4.0,4.0,37,0.00,,,0.00,meteohub,2013-03-14 04:42:00,
2013-03-14 00:47:00,34.9,11.8,30.13,North,0,3.0,4.0,38,0.00,,,0.00,meteohub,2013-03-14 04:47:00,
2013-03-14 00:52:00,34.7,11.7,30.13,North,0,3.0,4.0,38,0.00,,,0.00,meteohub,2013-03-14 04:52:00,
2013-03-14 00:57:00,34.5,12.0,30.13,SE,135,3.0,4.0,39,0.00,,,0.00,meteohub,2013-03-14 04:57:00,
2013-03-14 01:02:00,34.3,12.0,30.13,SSW,202,2.0,4.0,39,0.00,,,0.00,meteohub,2013-03-14 05:02:00,
2013-03-14 01:07:00,34.3,12.0,30.13,NW,315,0.0,4.0,39,0.00,,,0.00,meteohub,2013-03-14 05:07:00,
2013-03-14 01:12:00,34.5,10.9,30.13,North,0,4.0,4.0,37,0.00,,,0.00,meteohub,2013-03-14 05:12:00,
2013-03-14 01:17:00,34.3,10.8,30.13,NE,45,3.0,11.0,37,0.00,,,0.00,meteohub,2013-03-14 05:17:00,
2013-03-14 01:23:00,34.3,10.8,30.13,NNW,338,2.0,11.0,37,0.00,,,0.00,meteohub,2013-03-14 05:23:00,
2013-03-14 01:28:00,34.2,10.6,30.13,North,0,3.0,11.0,37,0.00,,,0.00,meteohub,2013-03-14 05:28:00,
2013-03-14 01:33:00,34.2,10.6,30.13,NNE,22,0.0,4.0,37,0.00,,,0.00,meteohub,2013-03-14 05:33:00,
2013-03-14 01:38:00,34.0,10.4,30.13,NNW,338,3.0,4.0,37,0.00,,,0.00,meteohub,2013-03-14 05:38:00,
2013-03-14 01:43:00,33.8,10.2,30.16,WSW,248,3.0,4.0,37,0.00,,,0.00,meteohub,2013-03-14 05:43:00,
2013-03-14 01:48:00,34.0,9.9,30.16,SSW,202,0.0,4.0,36,0.00,,,0.00,meteohub,2013-03-14 05:48:00,
2013-03-14 01:53:00,33.8,9.7,30.16,NW,315,0.0,6.0,36,0.00,,,0.00,meteohub,2013-03-14 05:53:00,
2013-03-14 01:58:00,33.8,9.7,30.16,North,0,4.0,6.0,36,0.00,,,0.00,meteohub,2013-03-14 05:58:00,
2013-03-14 02:03:00,33.4,9.3,30.16,WNW,292,0.0,6.0,36,0.00,,,0.00,meteohub,2013-03-14 06:03:00,
2013-03-14 02:08:00,33.3,9.1,30.16,NNE,22,0.0,5.0,36,0.00,,,0.00,meteohub,2013-03-14 06:08:00,
2013-03-14 02:13:00,33.3,9.1,30.16,WSW,248,4.0,4.0,36,0.00,,,0.00,meteohub,2013-03-14 06:13:00,
2013-03-14 02:18:00,33.1,9.0,30.16,South,180,0.0,4.0,36,0.00,,,0.00,meteohub,2013-03-14 06:18:00,
2013-03-14 02:23:00,32.9,8.8,30.16,South,180,3.0,4.0,36,0.00,,,0.00,meteohub,2013-03-14 06:23:00,
2013-03-14 02:28:00,32.9,8.8,30.16,North,0,0.0,4.0,36,0.00,,,0.00,meteohub,2013-03-14 06:28:00,
2013-03-14 02:33:00,32.7,8.8,30.16,NNW,338,0.0,6.0,36,0.00,,,0.00,meteohub,2013-03-14 06:33:00,
2013-03-14 02:38:00,32.9,8.8,30.16,North,0,2.0,6.0,36,0.00,,,0.00,meteohub,2013-03-14 06:38:00,
2013-03-14 02:43:00,32.9,8.8,30.16,NNW,338,2.0,6.0,36,0.00,,,0.00,meteohub,2013-03-14 06:43:00,
2013-03-14 02:48:00,32.7,8.8,30.16,WNW,292,3.0,5.0,36,0.00,,,0.00,meteohub,2013-03-14 06:48:00,
2013-03-14 02:53:00,32.5,8.6,30.16,NNW,338,0.0,5.0,36,0.00,,,0.00,meteohub,2013-03-14 06:53:00,
2013-03-14 02:58:00,32.2,8.8,30.16,NNW,338,2.0,4.0,37,0.00,,,0.00,meteohub,2013-03-14 06:58:00,
2013-03-14 03:03:00,32.0,8.6,30.16,NNW,338,2.0,5.0,37,0.00,,,0.00,meteohub,2013-03-14 07:03:00,
2013-03-14 03:08:00,31.6,9.0,30.16,NNW,338,0.0,5.0,38,0.00,,,0.00,meteohub,2013-03-14 07:08:00,
2013-03-14 03:14:00,31.3,8.6,30.16,NNW,338,0.0,5.0,38,0.00,,,0.00,meteohub,2013-03-14 07:14:00,
2013-03-14 03:19:00,30.7,9.3,30.16,South,180,0.0,3.0,40,0.00,,,0.00,meteohub,2013-03-14 07:19:00,
2013-03-14 03:24:00,31.1,9.7,30.16,WSW,248,0.0,3.0,40,0.00,,,0.00,meteohub,2013-03-14 07:24:00,
2013-03-14 03:29:00,30.6,9.1,30.16,WSW,248,0.0,4.0,40,0.00,,,0.00,meteohub,2013-03-14 07:29:00,
2013-03-14 03:34:00,30.4,9.0,30.16,WSW,248,0.0,4.0,40,0.00,,,0.00,meteohub,2013-03-14 07:34:00,
2013-03-14 03:39:00,30.9,9.5,30.16,North,0,0.0,4.0,40,0.00,,,0.00,meteohub,2013-03-14 07:39:00,
2013-03-14 03:44:00,30.4,9.0,30.16,ESE,112,0.0,4.0,40,0.00,,,0.00,meteohub,2013-03-14 07:44:00,
2013-03-14 03:49:00,30.2,9.3,30.16,ESE,112,0.0,4.0,41,0.00,,,0.00,meteohub,2013-03-14 07:49:00,
2013-03-14 03:54:00,30.0,9.1,30.16,ESE,112,0.0,4.0,41,0.00,,,0.00,meteohub,2013-03-14 07:54:00,
2013-03-14 03:59:00,29.8,9.0,30.16,ESE,112,0.0,3.0,41,0.00,,,0.00,meteohub,2013-03-14 07:59:00,
2013-03-14 04:04:00,29.5,8.6,30.16,ESE,112,0.0,0.0,41,0.00,,,0.00,meteohub,2013-03-14 08:04:00,
2013-03-14 04:09:00,29.8,9.5,30.16,ESE,112,0.0,3.0,42,0.00,,,0.00,meteohub,2013-03-14 08:09:00,
2013-03-14 04:14:00,29.7,9.3,30.16,ESE,112,3.0,3.0,42,0.00,,,0.00,meteohub,2013-03-14 08:14:00,
2013-03-14 04:19:00,29.7,9.3,30.16,ESE,112,3.0,3.0,42,0.00,,,0.00,meteohub,2013-03-14 08:19:00,
2013-03-14 04:24:00,29.5,9.1,30.16,ESE,112,0.0,3.0,42,0.00,,,0.00,meteohub,2013-03-14 08:24:00,
2013-03-14 04:29:00,29.5,9.7,30.13,ESE,112,0.0,3.0,43,0.00,,,0.00,meteohub,2013-03-14 08:29:00,
2013-03-14 04:34:00,28.9,9.3,30.13,ESE,112,0.0,3.0,43,0.00,,,0.00,meteohub,2013-03-14 08:34:00,
2013-03-14 04:39:00,28.6,9.5,30.13,ESE,112,0.0,3.0,44,0.00,,,0.00,meteohub,2013-03-14 08:39:00,
2013-03-14 04:44:00,28.4,9.3,30.16,ESE,112,0.0,0.0,44,0.00,,,0.00,meteohub,2013-03-14 08:44:00,
2013-03-14 04:49:00,28.4,9.7,30.16,ESE,112,0.0,0.0,45,0.00,,,0.00,meteohub,2013-03-14 08:49:00,
2013-03-14 04:54:00,28.6,9.9,30.16,ESE,112,0.0,0.0,45,0.00,,,0.00,meteohub,2013-03-14 08:54:00,
2013-03-14 04:59:00,28.0,9.9,30.16,ESE,112,0.0,0.0,46,0.00,,,0.00,meteohub,2013-03-14 08:59:00,
2013-03-14 05:04:00,27.7,9.7,30.16,ESE,112,0.0,0.0,46,0.00,,,0.00,meteohub,2013-03-14 09:04:00,
2013-03-14 05:09:00,27.9,9.7,30.16,ESE,112,3.0,0.0,46,0.00,,,0.00,meteohub,2013-03-14 09:09:00,
2013-03-14 05:14:00,28.6,9.9,30.16,ESE,112,0.0,0.0,45,0.00,,,0.00,meteohub,2013-03-14 09:14:00,
2013-03-14 05:19:00,28.8,10.0,30.16,ESE,112,4.0,4.0,45,0.00,,,0.00,meteohub,2013-03-14 09:19:00,
2013-03-14 05:24:00,29.1,9.9,30.16,ESE,112,3.0,4.0,44,0.00,,,0.00,meteohub,2013-03-14 09:24:00,
2013-03-14 05:29:00,29.3,10.0,30.16,ESE,112,0.0,4.0,44,0.00,,,0.00,meteohub,2013-03-14 09:29:00,
2013-03-14 05:34:00,29.5,10.2,30.16,ESE,112,3.0,4.0,44,0.00,,,0.00,meteohub,2013-03-14 09:34:00,
2013-03-14 05:39:00,29.5,9.7,30.16,ESE,112,3.0,4.0,43,0.00,,,0.00,meteohub,2013-03-14 09:39:00,
2013-03-14 05:44:00,29.5,10.2,30.16,ESE,112,0.0,3.0,44,0.00,,,0.00,meteohub,2013-03-14 09:44:00,
2013-03-14 05:50:00,29.3,10.0,30.16,ESE,112,4.0,4.0,44,0.00,,,0.00,meteohub,2013-03-14 09:50:00,
2013-03-14 05:55:00,29.5,9.7,30.16,ESE,112,3.0,4.0,43,0.00,,,0.00,meteohub,2013-03-14 09:55:00,
2013-03-14 06:00:00,29.3,10.0,30.16,ESE,112,0.0,4.0,44,0.00,,,0.00,meteohub,2013-03-14 10:00:00,
2013-03-14 06:05:00,28.9,9.7,30.16,ESE,112,0.0,4.0,44,0.00,,,0.00,meteohub,2013-03-14 10:05:00,
2013-03-14 06:10:00,28.6,9.5,30.16,ESE,112,0.0,4.0,44,0.00,,,0.00,meteohub,2013-03-14 10:10:00,
2013-03-14 06:15:00,28.2,9.7,30.16,ESE,112,0.0,3.0,45,0.00,,,0.00,meteohub,2013-03-14 10:15:00,
2013-03-14 06:20:00,27.9,9.7,30.16,ESE,112,2.0,3.0,46,0.00,,,0.00,meteohub,2013-03-14 10:20:00,
2013-03-14 06:25:00,27.9,10.2,30.16,ESE,112,0.0,0.0,47,0.00,,,0.00,meteohub,2013-03-14 10:25:00,
2013-03-14 06:30:00,27.7,10.0,30.16,ESE,112,0.0,3.0,47,0.00,,,0.00,meteohub,2013-03-14 10:30:00,
2013-03-14 06:35:00,27.7,10.6,30.16,ESE,112,3.0,3.0,48,0.00,,,0.00,meteohub,2013-03-14 10:35:00,
2013-03-14 06:40:00,27.9,10.8,30.16,ESE,112,0.0,3.0,48,0.00,,,0.00,meteohub,2013-03-14 10:40:00,
2013-03-14 06:45:00,27.7,10.0,30.19,ESE,112,0.0,3.0,47,0.00,,,0.00,meteohub,2013-03-14 10:45:00,
2013-03-14 06:50:00,27.3,9.7,30.19,ESE,112,0.0,3.0,47,0.00,,,0.00,meteohub,2013-03-14 10:50:00,
2013-03-14 06:55:00,27.1,10.0,30.19,ESE,112,0.0,2.0,48,0.00,,,0.00,meteohub,2013-03-14 10:55:00,
2013-03-14 07:00:00,27.3,10.8,30.19,ESE,112,0.0,0.0,49,0.00,,,0.00,meteohub,2013-03-14 11:00:00,
2013-03-14 07:05:00,27.9,10.8,30.19,ESE,112,3.0,3.0,48,0.00,,,0.00,meteohub,2013-03-14 11:05:00,
2013-03-14 07:10:00,27.9,10.2,30.19,ESE,112,0.0,4.0,47,0.00,,,0.00,meteohub,2013-03-14 11:10:00,
2013-03-14 07:15:00,27.5,9.9,30.19,ESE,112,0.0,4.0,47,0.00,,,0.00,meteohub,2013-03-14 11:15:00,
2013-03-14 07:20:00,27.3,10.2,30.19,ESE,112,0.0,4.0,48,0.00,,,0.00,meteohub,2013-03-14 11:20:00,
2013-03-14 07:25:00,27.0,9.9,30.19,ESE,112,0.0,0.0,48,0.00,,,0.00,meteohub,2013-03-14 11:25:00,
2013-03-14 07:30:00,27.7,10.6,30.19,ESE,112,3.0,0.0,48,0.00,,,0.00,meteohub,2013-03-14 11:30:00,
2013-03-14 07:35:00,28.2,11.1,30.19,ESE,112,4.0,4.0,48,0.00,,,0.00,meteohub,2013-03-14 11:35:00,
2013-03-14 07:40:00,28.6,10.9,30.19,ESE,112,0.0,4.0,47,0.00,,,0.00,meteohub,2013-03-14 11:40:00,
2013-03-14 07:45:00,28.2,10.6,30.19,ESE,112,0.0,4.0,47,0.00,,,0.00,meteohub,2013-03-14 11:45:00,
2013-03-14 07:50:00,28.0,10.4,30.19,ESE,112,0.0,4.0,47,0.00,,,0.00,meteohub,2013-03-14 11:50:00,
2013-03-14 07:55:00,27.9,10.2,30.19,ESE,112,0.0,2.0,47,0.00,,,0.00,meteohub,2013-03-14 11:55:00,
2013-03-14 08:00:00,28.0,10.9,30.19,ESE,112,3.0,3.0,48,0.00,,,0.00,meteohub,2013-03-14 12:00:00,
2013-03-14 08:05:00,29.3,11.1,30.19,ESE,112,2.0,4.0,46,0.00,,,0.00,meteohub,2013-03-14 12:05:00,
2013-03-14 08:10:00,29.7,11.5,30.19,ESE,112,0.0,4.0,46,0.00,,,0.00,meteohub,2013-03-14 12:10:00,
2013-03-14 08:15:00,30.4,11.7,30.19,ESE,112,0.0,4.0,45,0.00,,,0.00,meteohub,2013-03-14 12:15:00,
2013-03-14 08:20:00,31.3,11.8,30.19,ESE,112,3.0,4.0,44,0.00,,,0.00,meteohub,2013-03-14 12:20:00,
2013-03-14 08:25:00,32.2,12.2,30.22,ESE,112,0.0,4.0,43,0.00,,,0.00,meteohub,2013-03-14 12:25:00,
2013-03-14 08:30:00,32.7,12.2,30.22,ESE,112,0.0,4.0,42,0.00,,,0.00,meteohub,2013-03-14 12:30:00,
2013-03-14 08:35:00,33.3,12.0,30.22,WSW,248,4.0,4.0,41,0.00,,,0.00,meteohub,2013-03-14 12:35:00,
2013-03-14 08:40:00,33.4,12.2,30.22,WSW,248,3.0,6.0,41,0.00,,,0.00,meteohub,2013-03-14 12:40:00,
2013-03-14 08:45:00,33.8,12.0,30.22,ENE,68,3.0,6.0,40,0.00,,,0.00,meteohub,2013-03-14 12:45:00,
2013-03-14 08:50:00,34.3,12.6,30.22,WSW,248,4.0,6.0,40,0.00,,,0.00,meteohub,2013-03-14 12:50:00,
2013-03-14 08:55:00,34.9,12.9,30.22,SW,225,3.0,5.0,40,0.00,,,0.00,meteohub,2013-03-14 12:55:00,
2013-03-14 09:00:00,35.1,13.1,30.22,WNW,292,0.0,6.0,40,0.00,,,0.00,meteohub,2013-03-14 13:00:00,
2013-03-14 09:05:00,35.8,13.3,30.22,NE,45,3.0,6.0,39,0.00,,,0.00,meteohub,2013-03-14 13:05:00,
2013-03-14 09:10:00,36.1,12.4,30.22,WNW,292,3.0,6.0,37,0.00,,,0.00,meteohub,2013-03-14 13:10:00,
2013-03-14 09:15:00,36.1,11.8,30.22,WSW,248,3.0,7.0,36,0.00,,,0.00,meteohub,2013-03-14 13:15:00,
2013-03-14 09:20:00,36.9,12.4,30.22,NE,45,7.0,7.0,36,0.00,,,0.00,meteohub,2013-03-14 13:20:00,
2013-03-14 09:25:00,37.9,12.7,30.22,North,0,4.0,8.0,35,0.00,,,0.00,meteohub,2013-03-14 13:25:00,
2013-03-14 09:30:00,38.1,12.9,30.22,SW,225,4.0,8.0,35,0.00,,,0.00,meteohub,2013-03-14 13:30:00,
2013-03-14 09:35:00,37.8,11.8,30.22,North,0,4.0,8.0,34,0.00,,,0.00,meteohub,2013-03-14 13:35:00,
2013-03-14 09:40:00,37.8,11.8,30.22,SSW,202,5.0,8.0,34,0.00,,,0.00,meteohub,2013-03-14 13:40:00,
2013-03-14 09:45:00,37.6,11.7,30.22,NW,315,2.0,8.0,34,0.00,,,0.00,meteohub,2013-03-14 13:45:00,
2013-03-14 09:50:00,38.3,11.7,30.22,WSW,248,3.0,6.0,33,0.00,,,0.00,meteohub,2013-03-14 13:50:00,
2013-03-14 09:55:00,38.8,12.2,30.22,NNE,22,4.0,6.0,33,0.00,,,0.00,meteohub,2013-03-14 13:55:00,
2013-03-14 10:00:00,38.8,12.2,30.22,WNW,292,4.0,7.0,33,0.00,,,0.00,meteohub,2013-03-14 14:00:00,
2013-03-14 10:05:00,39.0,12.4,30.22,WSW,248,5.0,7.0,33,0.00,,,0.00,meteohub,2013-03-14 14:05:00,
2013-03-14 10:10:00,38.8,12.2,30.22,NNE,22,5.0,11.0,33,0.00,,,0.00,meteohub,2013-03-14 14:10:00,
2013-03-14 10:15:00,38.7,11.3,30.22,WSW,248,7.0,12.0,32,0.00,,,0.00,meteohub,2013-03-14 14:15:00,
2013-03-14 10:20:00,38.7,11.3,30.22,WSW,248,3.0,12.0,32,0.00,,,0.00,meteohub,2013-03-14 14:20:00,
2013-03-14 10:25:00,39.6,12.2,30.22,NNE,22,4.0,10.0,32,0.00,,,0.00,meteohub,2013-03-14 14:25:00,
2013-03-14 10:30:00,39.7,11.5,30.22,ESE,112,6.0,10.0,31,0.00,,,0.00,meteohub,2013-03-14 14:30:00,
2013-03-14 10:35:00,40.1,11.8,30.22,ESE,112,3.0,11.0,31,0.00,,,0.00,meteohub,2013-03-14 14:35:00,
2013-03-14 10:41:00,39.9,11.7,30.22,ESE,112,5.0,11.0,31,0.00,,,0.00,meteohub,2013-03-14 14:41:00,
2013-03-14 10:46:00,39.9,11.7,30.22,NNE,22,5.0,11.0,31,0.00,,,0.00,meteohub,2013-03-14 14:46:00,
2013-03-14 10:51:00,39.9,11.7,30.22,NE,45,6.0,11.0,31,0.00,,,0.00,meteohub,2013-03-14 14:51:00,
2013-03-14 10:56:00,40.3,12.0,30.22,ENE,68,5.0,9.0,31,0.00,,,0.00,meteohub,2013-03-14 14:56:00,
2013-03-14 11:01:00,40.3,11.3,30.22,NNW,338,6.0,9.0,30,0.00,,,0.00,meteohub,2013-03-14 15:01:00,
2013-03-14 11:06:00,41.0,11.8,30.22,NNE,22,5.0,9.0,30,0.00,,,0.00,meteohub,2013-03-14 15:06:00,
2013-03-14 11:11:00,40.8,11.8,30.22,NNE,22,3.0,10.0,30,0.00,,,0.00,meteohub,2013-03-14 15:11:00,
2013-03-14 11:16:00,41.4,12.2,30.22,NNE,22,6.0,11.0,30,0.00,,,0.00,meteohub,2013-03-14 15:16:00,
2013-03-14 11:21:00,41.7,12.6,30.22,ENE,68,8.0,11.0,30,0.00,,,0.00,meteohub,2013-03-14 15:21:00,
2013-03-14 11:26:00,42.8,13.5,30.22,SSW,202,4.0,13.0,30,0.00,,,0.00,meteohub,2013-03-14 15:26:00,
2013-03-14 11:31:00,43.0,13.6,30.22,NE,45,6.0,13.0,30,0.00,,,0.00,meteohub,2013-03-14 15:31:00,
2013-03-14 11:36:00,43.3,13.3,30.22,South,180,3.0,13.0,29,0.00,,,0.00,meteohub,2013-03-14 15:36:00,
2013-03-14 11:42:00,43.3,13.3,30.22,West,270,3.0,11.0,29,0.00,,,0.00,meteohub,2013-03-14 15:42:00,
2013-03-14 11:47:00,43.7,13.5,30.22,ENE,68,3.0,10.0,29,0.00,,,0.00,meteohub,2013-03-14 15:47:00,
2013-03-14 11:52:00,44.4,14.2,30.22,WSW,248,8.0,10.0,29,0.00,,,0.00,meteohub,2013-03-14 15:52:00,
2013-03-14 11:57:00,45.3,14.9,30.22,NNW,338,9.0,9.0,29,0.00,,,0.00,meteohub,2013-03-14 15:57:00,
2013-03-14 12:02:00,44.8,14.5,30.22,NNE,22,3.0,9.0,29,0.00,,,0.00,meteohub,2013-03-14 16:02:00,
2013-03-14 12:07:00,44.6,13.5,30.22,ENE,68,5.0,11.0,28,0.00,,,0.00,meteohub,2013-03-14 16:07:00,
2013-03-14 12:12:00,44.6,13.5,30.22,WSW,248,4.0,11.0,28,0.00,,,0.00,meteohub,2013-03-14 16:12:00,
2013-03-14 12:18:00,45.1,14.0,30.22,SSW,202,3.0,10.0,28,0.00,,,0.00,meteohub,2013-03-14 16:18:00,
2013-03-14 12:23:00,46.2,14.9,30.22,ENE,68,3.0,9.0,28,0.00,,,0.00,meteohub,2013-03-14 16:23:00,
2013-03-14 12:28:00,46.0,14.7,30.19,NNW,338,5.0,9.0,28,0.00,,,0.00,meteohub,2013-03-14 16:28:00,
2013-03-14 12:33:00,45.3,14.2,30.19,WSW,248,4.0,9.0,28,0.00,,,0.00,meteohub,2013-03-14 16:33:00,
2013-03-14 12:38:00,45.5,14.4,30.19,West,270,4.0,10.0,28,0.00,,,0.00,meteohub,2013-03-14 16:38:00,
2013-03-14 12:43:00,46.0,14.7,30.19,NNE,22,7.0,10.0,28,0.00,,,0.00,meteohub,2013-03-14 16:43:00,
2013-03-14 12:48:00,46.8,15.4,30.19,WNW,292,4.0,10.0,28,0.00,,,0.00,meteohub,2013-03-14 16:48:00,
2013-03-14 12:53:00,47.5,16.0,30.19,WSW,248,6.0,8.0,28,0.00,,,0.00,meteohub,2013-03-14 16:53:00,
2013-03-14 12:58:00,47.3,15.8,30.19,WSW,248,4.0,8.0,28,0.00,,,0.00,meteohub,2013-03-14 16:58:00,
2013-03-14 13:03:00,47.3,15.1,30.19,NW,315,4.0,8.0,27,0.00,,,0.00,meteohub,2013-03-14 17:03:00,
2013-03-14 13:08:00,46.9,15.4,30.19,WNW,292,2.0,8.0,28,0.00,,,0.00,meteohub,2013-03-14 17:08:00,
2013-03-14 13:13:00,46.8,14.5,30.19,WNW,292,8.0,12.0,27,0.00,,,0.00,meteohub,2013-03-14 17:13:00,
2013-03-14 13:18:00,48.0,15.6,30.19,NNE,22,3.0,12.0,27,0.00,,,0.00,meteohub,2013-03-14 17:18:00,
2013-03-14 13:23:00,48.2,15.8,30.19,WNW,292,10.0,12.0,27,0.00,,,0.00,meteohub,2013-03-14 17:23:00,
2013-03-14 13:28:00,48.7,16.2,30.16,North,0,4.0,10.0,27,0.00,,,0.00,meteohub,2013-03-14 17:28:00,
2013-03-14 13:33:00,48.9,16.3,30.16,NNE,22,4.0,10.0,27,0.00,,,0.00,meteohub,2013-03-14 17:33:00,
2013-03-14 13:38:00,48.4,16.0,30.16,NNE,22,5.0,10.0,27,0.00,,,0.00,meteohub,2013-03-14 17:38:00,
2013-03-14 13:43:00,48.7,16.2,30.16,SE,135,3.0,9.0,27,0.00,,,0.00,meteohub,2013-03-14 17:43:00,
2013-03-14 13:48:00,49.1,16.5,30.16,NNE,22,11.0,11.0,27,0.00,,,0.00,meteohub,2013-03-14 17:48:00,
2013-03-14 13:53:00,50.4,17.6,30.16,WSW,248,6.0,11.0,27,0.00,,,0.00,meteohub,2013-03-14 17:53:00,
2013-03-14 13:58:00,50.4,16.7,30.16,NNW,338,4.0,11.0,26,0.00,,,0.00,meteohub,2013-03-14 17:58:00,
2013-03-14 14:03:00,48.9,16.3,30.16,West,270,8.0,11.0,27,0.00,,,0.00,meteohub,2013-03-14 18:03:00,
2013-03-14 14:08:00,50.2,17.4,30.16,WSW,248,11.0,11.0,27,0.00,,,0.00,meteohub,2013-03-14 18:08:00,
2013-03-14 14:13:00,50.7,18.0,30.16,SSW,202,0.0,11.0,27,0.00,,,0.00,meteohub,2013-03-14 18:13:00,
2013-03-14 14:18:00,50.9,17.2,30.16,SW,225,6.0,13.0,26,0.00,,,0.00,meteohub,2013-03-14 18:18:00,
2013-03-14 14:23:00,51.8,18.0,30.16,WSW,248,3.0,13.0,26,0.00,,,0.00,meteohub,2013-03-14 18:23:00,
2013-03-14 14:28:00,50.7,17.1,30.16,WNW,292,4.0,13.0,26,0.00,,,0.00,meteohub,2013-03-14 18:28:00,
2013-03-14 14:33:00,51.6,17.8,30.16,SSE,158,3.0,8.0,26,0.00,,,0.00,meteohub,2013-03-14 18:33:00,
2013-03-14 14:38:00,51.3,17.6,30.16,North,0,3.0,13.0,26,0.00,,,0.00,meteohub,2013-03-14 18:38:00,
2013-03-14 14:43:00,51.3,17.6,30.13,NE,45,4.0,13.0,26,0.00,,,0.00,meteohub,2013-03-14 18:43:00,
2013-03-14 14:48:00,52.7,18.7,30.13,WNW,292,5.0,13.0,26,0.00,,,0.00,meteohub,2013-03-14 18:48:00,
2013-03-14 14:53:00,53.2,19.2,30.13,SSW,202,5.0,11.0,26,0.00,,,0.00,meteohub,2013-03-14 18:53:00,
2013-03-14 14:58:00,53.1,19.0,30.13,NNW,338,5.0,11.0,26,0.00,,,0.00,meteohub,2013-03-14 18:58:00,
2013-03-14 15:04:00,53.8,18.9,30.13,SSE,158,6.0,10.0,25,0.00,,,0.00,meteohub,2013-03-14 19:04:00,
2013-03-14 15:09:00,53.4,19.4,30.13,NNE,22,11.0,11.0,26,0.00,,,0.00,meteohub,2013-03-14 19:09:00,
2013-03-14 15:14:00,52.9,18.9,30.13,WSW,248,4.0,11.0,26,0.00,,,0.00,meteohub,2013-03-14 19:14:00,
2013-03-14 15:19:00,53.6,18.7,30.13,NNE,22,8.0,11.0,25,0.00,,,0.00,meteohub,2013-03-14 19:19:00,
2013-03-14 15:24:00,54.5,19.4,30.13,ESE,112,3.0,11.0,25,0.00,,,0.00,meteohub,2013-03-14 19:24:00,
2013-03-14 15:29:00,55.9,20.7,30.13,WSW,248,4.0,11.0,25,0.00,,,0.00,meteohub,2013-03-14 19:29:00,
2013-03-14 15:34:00,54.7,19.6,30.13,NNE,22,3.0,10.0,25,0.00,,,0.00,meteohub,2013-03-14 19:34:00,
2013-03-14 15:39:00,54.3,19.2,30.13,West,270,7.0,15.0,25,0.00,,,0.00,meteohub,2013-03-14 19:39:00,
2013-03-14 15:44:00,53.6,16.7,30.10,WSW,248,10.0,15.0,23,0.00,,,0.00,meteohub,2013-03-14 19:44:00,
2013-03-14 15:49:00,54.5,19.4,30.10,WSW,248,4.0,12.0,25,0.00,,,0.00,meteohub,2013-03-14 19:49:00,
2013-03-14 15:54:00,55.4,20.1,30.10,North,0,5.0,12.0,25,0.00,,,0.00,meteohub,2013-03-14 19:54:00,
2013-03-14 15:59:00,55.8,20.5,30.10,NNW,338,3.0,11.0,25,0.00,,,0.00,meteohub,2013-03-14 19:59:00,
2013-03-14 16:04:00,55.2,18.1,30.10,NNW,338,4.0,9.0,23,0.00,,,0.00,meteohub,2013-03-14 20:04:00,
2013-03-14 16:09:00,56.7,21.2,30.10,WSW,248,7.0,9.0,25,0.00,,,0.00,meteohub,2013-03-14 20:09:00,
2013-03-14 16:14:00,56.1,17.8,30.10,SSW,202,6.0,9.0,22,0.00,,,0.00,meteohub,2013-03-14 20:14:00,
2013-03-14 16:19:00,55.9,17.6,30.10,NNW,338,5.0,12.0,22,0.00,,,0.00,meteohub,2013-03-14 20:19:00,
2013-03-14 16:24:00,55.6,17.2,30.10,NNW,338,2.0,12.0,22,0.00,,,0.00,meteohub,2013-03-14 20:24:00,
2013-03-14 16:29:00,55.6,17.2,30.10,NNW,338,5.0,12.0,22,0.00,,,0.00,meteohub,2013-03-14 20:29:00,
2013-03-14 16:34:00,55.4,17.2,30.10,SSE,158,8.0,10.0,22,0.00,,,0.00,meteohub,2013-03-14 20:34:00,
2013-03-14 16:39:00,55.0,18.0,30.10,NNE,22,4.0,10.0,23,0.00,,,0.00,meteohub,2013-03-14 20:39:00,
2013-03-14 16:44:00,55.9,17.6,30.10,WNW,292,3.0,10.0,22,0.00,,,0.00,meteohub,2013-03-14 20:44:00,
2013-03-14 16:49:00,55.8,17.4,30.10,NE,45,5.0,10.0,22,0.00,,,0.00,meteohub,2013-03-14 20:49:00,
2013-03-14 16:54:00,56.7,18.3,30.10,ENE,68,4.0,9.0,22,0.00,,,0.00,meteohub,2013-03-14 20:54:00,
2013-03-14 16:59:00,55.6,17.2,30.10,NNE,22,6.0,8.0,22,0.00,,,0.00,meteohub,2013-03-14 20:59:00,
2013-03-14 17:04:00,56.3,18.0,30.10,NNW,338,6.0,9.0,22,0.00,,,0.00,meteohub,2013-03-14 21:04:00,
2013-03-14 17:09:00,55.8,17.4,30.10,ENE,68,4.0,9.0,22,0.00,,,0.00,meteohub,2013-03-14 21:09:00,
2013-03-14 17:14:00,55.4,17.2,30.10,NNE,22,3.0,8.0,22,0.00,,,0.00,meteohub,2013-03-14 21:14:00,
2013-03-14 17:19:00,55.4,17.2,30.10,WNW,292,8.0,9.0,22,0.00,,,0.00,meteohub,2013-03-14 21:19:00,
2013-03-14 17:24:00,55.4,17.2,30.10,SW,225,8.0,10.0,22,0.00,,,0.00,meteohub,2013-03-14 21:24:00,
2013-03-14 17:29:00,54.3,17.2,30.10,WNW,292,5.0,12.0,23,0.00,,,0.00,meteohub,2013-03-14 21:29:00,
2013-03-14 17:34:00,54.0,17.1,30.10,West,270,5.0,12.0,23,0.00,,,0.00,meteohub,2013-03-14 21:34:00,
2013-03-14 17:39:00,54.5,17.4,30.10,WSW,248,8.0,12.0,23,0.00,,,0.00,meteohub,2013-03-14 21:39:00,
2013-03-14 17:44:00,54.7,17.6,30.10,ENE,68,3.0,10.0,23,0.00,,,0.00,meteohub,2013-03-14 21:44:00,
2013-03-14 17:49:00,54.1,17.1,30.10,WSW,248,3.0,10.0,23,0.00,,,0.00,meteohub,2013-03-14 21:49:00,
2013-03-14 17:55:00,53.4,16.5,30.10,NNW,338,4.0,8.0,23,0.00,,,0.00,meteohub,2013-03-14 21:55:00,
2013-03-14 18:00:00,53.6,16.7,30.10,WNW,292,0.0,9.0,23,0.00,,,0.00,meteohub,2013-03-14 22:00:00,
2013-03-14 18:05:00,53.1,16.2,30.10,West,270,7.0,9.0,23,0.00,,,0.00,meteohub,2013-03-14 22:05:00,
2013-03-14 18:10:00,52.2,15.4,30.10,West,270,8.0,9.0,23,0.00,,,0.00,meteohub,2013-03-14 22:10:00,
2013-03-14 18:15:00,52.2,15.4,30.10,North,0,4.0,8.0,23,0.00,,,0.00,meteohub,2013-03-14 22:15:00,
2013-03-14 18:20:00,51.8,13.1,30.10,West,270,0.0,8.0,21,0.00,,,0.00,meteohub,2013-03-14 22:20:00,
2013-03-14 18:25:00,51.6,12.9,30.10,WNW,292,3.0,8.0,21,0.00,,,0.00,meteohub,2013-03-14 22:25:00,
2013-03-14 18:30:00,51.1,12.6,30.10,SSE,158,3.0,8.0,21,0.00,,,0.00,meteohub,2013-03-14 22:30:00,
2013-03-14 18:35:00,50.7,12.2,30.10,NNW,338,0.0,7.0,21,0.00,,,0.00,meteohub,2013-03-14 22:35:00,
2013-03-14 18:40:00,50.4,11.8,30.10,NNW,338,3.0,7.0,21,0.00,,,0.00,meteohub,2013-03-14 22:40:00,
2013-03-14 18:45:00,49.8,11.5,30.10,SW,225,5.0,8.0,21,0.00,,,0.00,meteohub,2013-03-14 22:45:00,
2013-03-14 18:50:00,49.6,11.3,30.10,NE,45,2.0,8.0,21,0.00,,,0.00,meteohub,2013-03-14 22:50:00,
2013-03-14 18:55:00,49.1,10.8,30.10,NE,45,0.0,8.0,21,0.00,,,0.00,meteohub,2013-03-14 22:55:00,
2013-03-14 19:00:00,48.7,13.5,30.10,NE,45,0.0,5.0,24,0.00,,,0.00,meteohub,2013-03-14 23:00:00,
2013-03-14 19:05:00,48.0,12.9,30.10,West,270,0.0,4.0,24,0.00,,,0.00,meteohub,2013-03-14 23:05:00,
2013-03-14 19:10:00,47.5,12.6,30.10,West,270,0.0,3.0,24,0.00,,,0.00,meteohub,2013-03-14 23:10:00,
2013-03-14 19:15:00,47.1,12.2,30.10,WNW,292,2.0,3.0,24,0.00,,,0.00,meteohub,2013-03-14 23:15:00,
2013-03-14 19:20:00,46.6,11.7,30.10,WNW,292,0.0,4.0,24,0.00,,,0.00,meteohub,2013-03-14 23:20:00,
2013-03-14 19:25:00,45.9,12.0,30.10,WNW,292,0.0,4.0,25,0.00,,,0.00,meteohub,2013-03-14 23:25:00,
2013-03-14 19:30:00,45.3,11.5,30.10,WNW,292,0.0,3.0,25,0.00,,,0.00,meteohub,2013-03-14 23:30:00,
2013-03-14 19:35:00,45.0,11.3,30.10,WNW,292,0.0,0.0,25,0.00,,,0.00,meteohub,2013-03-14 23:35:00,
2013-03-14 19:40:00,44.6,10.9,30.10,WSW,248,2.0,3.0,25,0.00,,,0.00,meteohub,2013-03-14 23:40:00,
2013-03-14 19:45:00,44.2,13.1,30.10,WSW,248,3.0,3.0,28,0.00,,,0.00,meteohub,2013-03-14 23:45:00,
2013-03-14 19:50:00,44.1,13.1,30.10,WSW,248,0.0,3.0,28,0.00,,,0.00,meteohub,2013-03-14 23:50:00,
2013-03-14 19:55:00,43.5,12.6,30.10,WSW,248,0.0,3.0,28,0.00,,,0.00,meteohub,2013-03-14 23:55:00,
2013-03-14 20:00:00,43.2,12.2,30.10,WSW,248,0.0,3.0,28,0.00,,,0.00,meteohub,2013-03-15 00:00:00,
2013-03-14 20:05:00,42.8,12.0,30.10,WSW,248,0.0,0.0,28,0.00,,,0.00,meteohub,2013-03-15 00:05:00,
2013-03-14 20:10:00,42.1,11.3,30.10,WSW,248,0.0,0.0,28,0.00,,,0.00,meteohub,2013-03-15 00:10:00,
2013-03-14 20:15:00,41.7,11.8,30.10,WSW,248,0.0,3.0,29,0.00,,,0.00,meteohub,2013-03-15 00:15:00,
2013-03-14 20:20:00,41.4,11.5,30.10,WSW,248,0.0,3.0,29,0.00,,,0.00,meteohub,2013-03-15 00:20:00,
2013-03-14 20:25:00,41.5,11.7,30.10,WSW,248,3.0,3.0,29,0.00,,,0.00,meteohub,2013-03-15 00:25:00,
2013-03-14 20:30:00,41.4,11.5,30.13,WSW,248,0.0,3.0,29,0.00,,,0.00,meteohub,2013-03-15 00:30:00,
2013-03-14 20:35:00,40.8,10.9,30.13,WSW,248,0.0,3.0,29,0.00,,,0.00,meteohub,2013-03-15 00:35:00,
2013-03-14 20:40:00,40.5,11.5,30.13,WSW,248,0.0,3.0,30,0.00,,,0.00,meteohub,2013-03-15 00:40:00,
2013-03-14 20:45:00,39.9,10.9,30.13,WSW,248,0.0,3.0,30,0.00,,,0.00,meteohub,2013-03-15 00:45:00,
2013-03-14 20:50:00,39.6,10.8,30.13,WSW,248,0.0,0.0,30,0.00,,,0.00,meteohub,2013-03-15 00:50:00,
2013-03-14 20:55:00,39.2,10.4,30.13,WSW,248,0.0,0.0,30,0.00,,,0.00,meteohub,2013-03-15 00:55:00,
2013-03-14 21:00:00,38.7,10.6,30.13,WSW,248,0.0,0.0,31,0.00,,,0.00,meteohub,2013-03-15 01:00:00,
2013-03-14 21:05:00,38.5,10.4,30.13,WSW,248,0.0,0.0,31,0.00,,,0.00,meteohub,2013-03-15 01:05:00,
2013-03-14 21:10:00,37.9,10.8,30.13,WSW,248,3.0,3.0,32,0.00,,,0.00,meteohub,2013-03-15 01:10:00,
2013-03-14 21:15:00,37.9,10.8,30.13,WSW,248,2.0,3.0,32,0.00,,,0.00,meteohub,2013-03-15 01:15:00,
2013-03-14 21:20:00,37.6,11.1,30.13,WSW,248,0.0,3.0,33,0.00,,,0.00,meteohub,2013-03-15 01:20:00,
2013-03-14 21:25:00,37.4,10.9,30.13,WSW,248,0.0,3.0,33,0.00,,,0.00,meteohub,2013-03-15 01:25:00,
2013-03-14 21:30:00,37.0,11.8,30.13,West,270,0.0,2.0,35,0.00,,,0.00,meteohub,2013-03-15 01:30:00,
2013-03-14 21:35:00,36.9,12.4,30.13,West,270,0.0,2.0,36,0.00,,,0.00,meteohub,2013-03-15 01:35:00,
2013-03-14 21:40:00,36.7,12.9,30.13,West,270,2.0,2.0,37,0.00,,,0.00,meteohub,2013-03-15 01:40:00,
2013-03-14 21:45:00,36.7,12.9,30.13,West,270,2.0,3.0,37,0.00,,,0.00,meteohub,2013-03-15 01:45:00,
2013-03-14 21:50:00,36.3,12.6,30.13,West,270,0.0,3.0,37,0.00,,,0.00,meteohub,2013-03-15 01:50:00,
2013-03-14 21:55:00,36.3,12.6,30.13,West,270,0.0,3.0,37,0.00,,,0.00,meteohub,2013-03-15 01:55:00,
2013-03-14 22:00:00,36.3,13.1,30.13,West,270,0.0,3.0,38,0.00,,,0.00,meteohub,2013-03-15 02:00:00,
2013-03-14 22:05:00,36.3,13.1,30.13,West,270,0.0,3.0,38,0.00,,,0.00,meteohub,2013-03-15 02:05:00,
2013-03-14 22:10:00,36.1,12.4,30.13,West,270,2.0,3.0,37,0.00,,,0.00,meteohub,2013-03-15 02:10:00,
2013-03-14 22:15:00,36.1,11.8,30.13,West,270,0.0,2.0,36,0.00,,,0.00,meteohub,2013-03-15 02:15:00,
2013-03-14 22:20:00,36.1,12.4,30.13,West,270,0.0,2.0,37,0.00,,,0.00,meteohub,2013-03-15 02:20:00,
2013-03-14 22:25:00,36.1,12.4,30.13,West,270,0.0,2.0,37,0.00,,,0.00,meteohub,2013-03-15 02:25:00,
2013-03-14 22:30:00,36.0,12.7,30.13,West,270,0.0,0.0,38,0.00,,,0.00,meteohub,2013-03-15 02:30:00,
2013-03-14 22:36:00,35.6,13.1,30.13,West,270,0.0,0.0,39,0.00,,,0.00,meteohub,2013-03-15 02:36:00,
2013-03-14 22:41:00,35.6,13.6,30.13,West,270,0.0,2.0,40,0.00,,,0.00,meteohub,2013-03-15 02:41:00,
2013-03-14 22:46:00,36.1,14.2,30.13,West,270,0.0,2.0,40,0.00,,,0.00,meteohub,2013-03-15 02:46:00,
2013-03-14 22:51:00,35.4,13.5,30.13,West,270,0.0,2.0,40,0.00,,,0.00,meteohub,2013-03-15 02:51:00,
2013-03-14 22:56:00,35.4,13.5,30.13,West,270,0.0,2.0,40,0.00,,,0.00,meteohub,2013-03-15 02:56:00,
2013-03-14 23:01:00,35.4,13.5,30.13,West,270,0.0,0.0,40,0.00,,,0.00,meteohub,2013-03-15 03:01:00,
2013-03-14 23:06:00,35.8,13.3,30.13,West,270,0.0,2.0,39,0.00,,,0.00,meteohub,2013-03-15 03:06:00,
2013-03-14 23:11:00,36.0,13.5,30.13,West,270,0.0,3.0,39,0.00,,,0.00,meteohub,2013-03-15 03:11:00,
2013-03-14 23:17:00,35.8,13.3,30.13,West,270,0.0,3.0,39,0.00,,,0.00,meteohub,2013-03-15 03:17:00,
2013-03-14 23:22:00,35.6,12.6,30.13,West,270,0.0,3.0,38,0.00,,,0.00,meteohub,2013-03-15 03:22:00,
2013-03-14 23:27:00,35.4,12.9,30.13,West,270,0.0,3.0,39,0.00,,,0.00,meteohub,2013-03-15 03:27:00,
2013-03-14 23:32:00,35.6,13.1,30.13,West,270,0.0,3.0,39,0.00,,,0.00,meteohub,2013-03-15 03:32:00,
2013-03-14 23:37:00,35.8,13.3,30.13,West,270,2.0,0.0,39,0.00,,,0.00,meteohub,2013-03-15 03:37:00,
2013-03-14 23:42:00,35.6,12.6,30.13,West,270,0.0,2.0,38,0.00,,,0.00,meteohub,2013-03-15 03:42:00,
2013-03-14 23:47:00,35.2,12.2,30.13,West,270,0.0,2.0,38,0.00,,,0.00,meteohub,2013-03-15 03:47:00,
2013-03-14 23:52:00,35.1,11.5,30.13,West,270,0.0,2.0,37,0.00,,,0.00,meteohub,2013-03-15 03:52:00,
2013-03-14 23:57:00,35.4,12.4,30.16,West,270,0.0,0.0,38,0.00,,,0.00,meteohub,2013-03-15 03:57:00,